Worcester, MA

7:59 AM EDT on April 23, 2018 (GMT -0400)
Worcester Regional

Weather History for KORH - January, 2013

Change the Weather History Date:

Tuesday, January 29, 2013

  Actual Average Record
Temperature  
Mean Temperature 28 °F 24 °F  
Max Temperature 32 °F 32 °F 60 °F (2002)
Min Temperature 24 °F 17 °F -13 °F (1925)
Degree Days  
Heating Degree Days 37 41  
Month to date heating degree days 1082 1185  
Since 1 July heating degree days 3297 3689  
Cooling Degree Days 0 0  
Month to date cooling degree days 0 0  
Year to date cooling degree days 0 0  
Moisture  
Dew Point 27 °F    
Average Humidity 91    
Maximum Humidity 100    
Minimum Humidity 81    
Precipitation  
Precipitation 0.13 in 0.11 in 1.09 in (1990)
Month to date precipitation 0.96 3.26  
Year to date precipitation 0.96 3.26  
Sea Level Pressure  
Sea Level Pressure 30.10 in    
Wind  
Wind Speed 5 mph (ESE)    
Max Wind Speed 10 mph    
Max Gust Speed 13 mph    
Visibility 3 miles    
Events Fog , Rain    
T = Trace of Precipitation, MM = Missing Value Source: NWS Daily Summary

Daily Weather History Graph

Daily Weather History Graph

Search for Another Location

Airport or City:

Astronomy

Jan. 29, 2013 Rise Set
Actual Time 7:03 AM EST 4:58 PM EST
Civil Twilight 6:33 AM EST 5:28 PM EST
Nautical Twilight 6:00 AM EST 6:01 PM EST
Astronomical Twilight 5:27 AM EST 6:34 PM EST
Moon 7:55 PM EST (1/29) 7:55 AM EST (1/29)
Length of Visible Light 10h 54m
Length of Day
9h 54m
Waning Gibbous, 94% of the Moon is Illuminated
Jan 29
Waning Gibbous
Feb 3
Last Quarter
Feb 10
New
Feb 17
First Quarter
Feb 25
Full

Hourly Weather History & Observations

Time (EST) Temp. Windchill Dew Point Humidity Pressure Visibility Wind Dir Wind Speed Gust Speed Precip Events Conditions
12:03 AM 25.0 °F - 24.1 °F 96% 29.96 in 1.5 mi Calm Calm - 0.00 in Rain Light Freezing Rain
12:13 AM 25.0 °F 20.7 °F 23.0 °F 92% 29.96 in 1.5 mi NNE 3.5 mph - 0.00 in   Overcast
12:25 AM 25.0 °F 20.7 °F 23.0 °F 92% 29.96 in 2.0 mi NNE 3.5 mph - 0.00 in   Overcast
12:54 AM 24.1 °F 18.2 °F 23.0 °F 96% 30.01 in 2.5 mi NNE 4.6 mph - 0.00 in   Overcast
1:27 AM 24.1 °F 17.0 °F 23.0 °F 96% 29.97 in 1.8 mi NNE 5.8 mph - N/A   Overcast
1:54 AM 24.1 °F 18.2 °F 21.9 °F 91% 30.02 in 1.8 mi NE 4.6 mph - N/A   Overcast
2:54 AM 24.1 °F 16.0 °F 21.9 °F 91% 30.04 in 1.8 mi NNE 6.9 mph - N/A   Overcast
3:26 AM 24.1 °F 16.0 °F 21.9 °F 91% 29.99 in 2.5 mi North 6.9 mph - N/A   Overcast
3:54 AM 24.1 °F 17.0 °F 21.9 °F 91% 30.04 in 2.5 mi NE 5.8 mph - N/A   Overcast
4:03 AM 24.1 °F 16.0 °F 21.9 °F 91% 30.00 in 3.0 mi NE 6.9 mph - N/A   Overcast
4:54 AM 24.1 °F 16.0 °F 21.9 °F 91% 30.06 in 5.0 mi NNE 6.9 mph - N/A   Overcast
5:26 AM 24.1 °F 17.0 °F 21.9 °F 91% 30.02 in 7.0 mi NNE 5.8 mph - N/A   Overcast
5:54 AM 24.1 °F 18.2 °F 21.9 °F 91% 30.08 in 8.0 mi NNE 4.6 mph - N/A   Overcast
6:10 AM 24.1 °F 17.0 °F 21.9 °F 91% 30.03 in 7.0 mi NNE 5.8 mph - N/A   Overcast
6:51 AM 24.8 °F 20.5 °F 21.2 °F 86% 30.06 in 10.0 mi NNE 3.5 mph - N/A   Overcast
6:54 AM 24.1 °F 18.2 °F 21.9 °F 91% 30.10 in 10.0 mi NNE 4.6 mph - N/A   Overcast
7:29 AM 24.1 °F 17.0 °F 21.9 °F 91% 30.08 in 10.0 mi NNE 5.8 mph - N/A   Overcast
7:54 AM 24.1 °F - 21.9 °F 91% 30.14 in 10.0 mi Calm Calm - N/A   Overcast
8:54 AM 26.1 °F 19.4 °F 21.9 °F 84% 30.16 in 10.0 mi NE 5.8 mph - N/A   Overcast
9:13 AM 26.1 °F 19.4 °F 23.0 °F 88% 30.10 in 9.0 mi NE 5.8 mph - N/A   Mostly Cloudy
9:54 AM 26.1 °F 20.5 °F 24.1 °F 92% 30.15 in 7.0 mi ENE 4.6 mph - N/A   Overcast
10:54 AM 27.0 °F 23.0 °F 25.0 °F 92% 30.17 in 7.0 mi ENE 3.5 mph - N/A   Overcast
11:54 AM 28.9 °F - 27.0 °F 92% 30.16 in 8.0 mi Calm Calm - N/A   Overcast
12:06 PM 30.0 °F - 26.1 °F 85% 30.12 in 7.0 mi Calm Calm - N/A   Overcast
12:54 PM 30.9 °F - 27.0 °F 85% 30.16 in 9.0 mi Calm Calm - N/A   Overcast
1:38 PM 30.9 °F 27.5 °F 27.0 °F 85% 30.10 in 7.0 mi ESE 3.5 mph - N/A   Overcast
1:54 PM 30.9 °F 27.5 °F 27.0 °F 85% 30.15 in 5.0 mi SE 3.5 mph - N/A   Overcast
2:54 PM 30.9 °F 26.2 °F 28.0 °F 89% 30.15 in 6.0 mi East 4.6 mph - N/A   Overcast
3:54 PM 30.9 °F 27.5 °F 28.9 °F 92% 30.16 in 5.0 mi SE 3.5 mph - N/A   Overcast
4:05 PM 30.9 °F 25.2 °F 28.9 °F 92% 30.11 in 4.0 mi SE 5.8 mph - N/A   Overcast
4:29 PM 30.9 °F 26.2 °F 28.9 °F 92% 30.11 in 1.0 mi SE 4.6 mph - N/A   Overcast
4:54 PM 30.9 °F 25.2 °F 28.9 °F 92% 30.17 in 1.0 mi SE 5.8 mph - N/A   Overcast
5:14 PM 30.9 °F 25.2 °F 28.9 °F 92% 30.11 in 0.8 mi SE 5.8 mph - N/A   Mist
5:46 PM 30.9 °F 25.2 °F 30.0 °F 96% 30.12 in 0.2 mi SSE 5.8 mph - N/A Fog Light Freezing Fog
5:54 PM 30.9 °F 27.5 °F 30.9 °F 100% 30.18 in 0.2 mi South 3.5 mph - 0.00 in Fog Light Freezing Fog
6:16 PM 30.9 °F 25.2 °F 30.0 °F 96% 30.12 in 0.2 mi SE 5.8 mph - 0.00 in Fog Light Freezing Fog
6:54 PM 30.9 °F 23.5 °F 30.0 °F 96% 30.17 in 0.2 mi SSE 8.1 mph - 0.00 in Fog Light Freezing Fog
7:54 PM 30.9 °F 25.2 °F 30.9 °F 100% 30.17 in 0.5 mi SSE 5.8 mph - N/A Fog Light Freezing Fog
8:03 PM 30.9 °F 24.3 °F 30.9 °F 100% 30.13 in 0.5 mi South 6.9 mph - N/A Fog Light Freezing Fog
8:15 PM 30.9 °F 25.2 °F 30.9 °F 100% 30.14 in 0.2 mi South 5.8 mph - N/A Fog Light Freezing Fog
8:31 PM 30.9 °F 25.2 °F 30.9 °F 100% 30.15 in 0.5 mi SSW 5.8 mph - N/A Fog Light Freezing Fog
8:54 PM 30.9 °F 24.3 °F 30.9 °F 100% 30.17 in 0.5 mi South 6.9 mph - 0.00 in Fog , Rain Light Freezing Rain
9:33 PM 32.0 °F 24.2 °F 30.9 °F 96% 30.10 in 0.2 mi South 9.2 mph - 0.01 in Fog , Rain Light Freezing Rain
9:42 PM 32.0 °F 26.4 °F 30.9 °F 96% 30.10 in 0.2 mi South 5.8 mph - 0.02 in Fog , Rain Light Freezing Rain
9:54 PM 32.0 °F 26.4 °F 30.9 °F 96% 30.15 in 0.2 mi SSE 5.8 mph - 0.02 in Fog , Rain Light Freezing Rain
10:10 PM 32.0 °F 24.8 °F 30.9 °F 96% 30.10 in 0.5 mi SSE 8.1 mph - 0.01 in Fog , Rain Light Freezing Rain
10:28 PM 32.0 °F 26.4 °F 30.9 °F 96% 30.09 in 1.5 mi SE 5.8 mph - 0.09 in Rain Light Freezing Rain
10:33 PM 32.0 °F 27.5 °F 30.9 °F 96% 30.10 in 2.0 mi SSE 4.6 mph - 0.09 in Rain Light Freezing Rain
10:43 PM 32.0 °F 27.5 °F 32.0 °F 100% 30.10 in 1.2 mi South 4.6 mph - 0.10 in Rain Light Freezing Rain
10:54 PM 32.0 °F 26.4 °F 30.9 °F 96% 30.14 in 0.8 mi SSE 5.8 mph - 0.10 in Rain Light Freezing Rain
11:09 PM 32.0 °F 27.5 °F 30.9 °F 96% 30.09 in 0.2 mi SSE 4.6 mph - 0.00 in Fog , Rain Light Freezing Rain
11:18 PM 32.0 °F 27.5 °F 32.0 °F 100% 30.10 in 0.2 mi South 4.6 mph - 0.00 in Fog , Rain Light Freezing Rain
11:22 PM 32.0 °F 26.4 °F 32.0 °F 100% 30.10 in 0.5 mi South 5.8 mph - 0.00 in Fog Fog
11:32 PM 32.0 °F 28.7 °F 32.0 °F 100% 30.10 in 0.2 mi South 3.5 mph - 0.00 in Fog , Rain Light Freezing Rain
11:54 PM 32.0 °F 27.5 °F 30.9 °F 96% 30.14 in 0.2 mi South 4.6 mph - 0.01 in Fog , Rain Light Freezing Rain
11:59 PM 32.0 °F 27.5 °F 30.9 °F 96% 30.10 in 0.5 mi South 4.6 mph - 0.00 in Fog , Rain Light Freezing Rain